Time,TemperatureF,DewpointF,PressureIn,WindDirection,WindDirectionDegrees,WindSpeedMPH,WindSpeedGustMPH,Humidity,HourlyPrecipIn,Conditions,Clouds,dailyrainin,SolarRadiationWatts/m^2,SoftwareType,DateUTC
2014-10-20 00:00:00,53.5,41.6,29.82,West,279,1.0,1.0,64,0.00,,,0.00,0,Wunderground v.1.15,2014-10-20 05:00:00,
2014-10-20 00:05:00,53.3,41.8,29.82,West,262,0.0,1.0,65,0.00,,,0.00,0,Wunderground v.1.15,2014-10-20 05:05:00,
2014-10-20 00:15:00,53.1,41.6,29.83,WNW,292,0.0,0.0,65,0.00,,,0.00,0,Wunderground v.1.15,2014-10-20 05:15:00,
2014-10-20 00:25:00,53.1,41.6,29.83,WNW,288,1.0,1.0,65,0.00,,,0.00,0,Wunderground v.1.15,2014-10-20 05:25:00,
2014-10-20 00:35:00,53.2,41.7,29.83,West,275,1.0,1.0,65,0.00,,,0.00,0,Wunderground v.1.15,2014-10-20 05:35:00,
2014-10-20 00:40:00,52.9,41.4,29.83,West,270,0.0,0.0,65,0.00,,,0.00,0,Wunderground v.1.15,2014-10-20 05:40:00,
2014-10-20 00:45:00,52.6,41.6,29.84,West,273,0.0,0.0,66,0.00,,,0.00,0,Wunderground v.1.15,2014-10-20 05:45:00,
2014-10-20 00:50:00,52.3,41.3,29.84,West,273,0.0,0.0,66,0.00,,,0.00,0,Wunderground v.1.15,2014-10-20 05:50:00,
2014-10-20 00:55:00,52.0,41.4,29.84,West,273,0.0,2.0,67,0.00,,,0.00,0,Wunderground v.1.15,2014-10-20 05:55:00,
2014-10-20 01:00:00,51.6,41.4,29.84,West,273,0.0,0.0,68,0.00,,,0.00,0,Wunderground v.1.15,2014-10-20 06:00:00,
2014-10-20 01:05:00,51.4,41.2,29.84,West,273,0.0,0.0,68,0.00,,,0.00,0,Wunderground v.1.15,2014-10-20 06:05:00,
2014-10-20 01:15:00,51.0,41.2,29.84,West,273,0.0,0.0,69,0.00,,,0.00,0,Wunderground v.1.15,2014-10-20 06:15:00,
2014-10-20 01:20:00,50.7,40.9,29.84,West,273,0.0,0.0,69,0.00,,,0.00,0,Wunderground v.1.15,2014-10-20 06:20:00,
2014-10-20 01:25:00,50.4,41.0,29.84,West,273,0.0,0.0,70,0.00,,,0.00,0,Wunderground v.1.15,2014-10-20 06:25:00,
2014-10-20 01:30:00,49.9,40.9,29.84,West,273,0.0,0.0,71,0.00,,,0.00,0,Wunderground v.1.15,2014-10-20 06:30:00,
2014-10-20 01:35:00,49.4,40.4,29.84,West,273,0.0,0.0,71,0.00,,,0.00,0,Wunderground v.1.15,2014-10-20 06:35:00,
2014-10-20 01:45:00,48.3,40.4,29.85,West,273,0.0,0.0,74,0.00,,,0.00,0,Wunderground v.1.15,2014-10-20 06:45:00,
2014-10-20 01:50:00,47.9,40.4,29.85,West,273,0.0,0.0,75,0.00,,,0.00,0,Wunderground v.1.15,2014-10-20 06:50:00,
2014-10-20 01:55:00,47.6,40.4,29.85,West,273,0.0,0.0,76,0.00,,,0.00,0,Wunderground v.1.15,2014-10-20 06:55:00,
2014-10-20 02:00:00,47.3,40.1,29.85,West,273,0.0,0.0,76,0.00,,,0.00,0,Wunderground v.1.15,2014-10-20 07:00:00,
2014-10-20 02:05:00,47.3,40.5,29.85,West,273,0.0,0.0,77,0.00,,,0.00,0,Wunderground v.1.15,2014-10-20 07:05:00,
2014-10-20 02:15:00,47.3,40.5,29.85,West,273,0.0,0.0,77,0.00,,,0.00,0,Wunderground v.1.15,2014-10-20 07:15:00,
2014-10-20 02:20:00,47.7,40.8,29.85,West,273,0.0,0.0,77,0.00,,,0.00,0,Wunderground v.1.15,2014-10-20 07:20:00,
2014-10-20 02:25:00,48.0,41.1,29.85,West,273,0.0,0.0,77,0.00,,,0.00,0,Wunderground v.1.15,2014-10-20 07:25:00,
2014-10-20 02:30:00,48.3,41.1,29.85,West,273,0.0,0.0,76,0.00,,,0.00,0,Wunderground v.1.15,2014-10-20 07:30:00,
2014-10-20 02:35:00,48.6,41.0,29.85,West,273,0.0,1.0,75,0.00,,,0.00,0,Wunderground v.1.15,2014-10-20 07:35:00,
2014-10-20 02:40:00,49.1,41.2,29.85,West,273,0.0,0.0,74,0.00,,,0.00,0,Wunderground v.1.15,2014-10-20 07:40:00,
2014-10-20 02:50:00,49.2,41.3,29.85,West,273,0.0,0.0,74,0.00,,,0.00,0,Wunderground v.1.15,2014-10-20 07:50:00,
2014-10-20 02:55:00,48.9,41.3,29.85,West,273,0.0,0.0,75,0.00,,,0.00,0,Wunderground v.1.15,2014-10-20 07:55:00,
2014-10-20 03:00:00,48.6,41.0,29.85,West,273,0.0,0.0,75,0.00,,,0.00,0,Wunderground v.1.15,2014-10-20 08:00:00,
2014-10-20 03:05:00,48.2,41.0,29.85,West,273,0.0,0.0,76,0.00,,,0.00,0,Wunderground v.1.15,2014-10-20 08:05:00,
2014-10-20 03:15:00,47.3,40.5,29.85,West,273,0.0,0.0,77,0.00,,,0.00,0,Wunderground v.1.15,2014-10-20 08:15:00,
2014-10-20 03:20:00,46.8,40.6,29.85,West,273,0.0,0.0,79,0.00,,,0.00,0,Wunderground v.1.15,2014-10-20 08:20:00,
2014-10-20 03:25:00,46.5,40.3,29.85,West,273,0.0,0.0,79,0.00,,,0.00,0,Wunderground v.1.15,2014-10-20 08:25:00,
2014-10-20 03:30:00,46.2,40.4,29.86,West,273,0.0,0.0,80,0.00,,,0.00,0,Wunderground v.1.15,2014-10-20 08:30:00,
2014-10-20 03:35:00,46.0,40.5,29.86,West,273,0.0,0.0,81,0.00,,,0.00,0,Wunderground v.1.15,2014-10-20 08:35:00,
2014-10-20 03:40:00,45.7,40.2,29.86,West,273,0.0,0.0,81,0.00,,,0.00,0,Wunderground v.1.15,2014-10-20 08:40:00,
2014-10-20 03:50:00,45.1,39.9,29.86,West,273,0.0,0.0,82,0.00,,,0.00,0,Wunderground v.1.15,2014-10-20 08:50:00,
2014-10-20 03:55:00,44.6,39.8,29.86,West,273,0.0,0.0,83,0.00,,,0.00,0,Wunderground v.1.15,2014-10-20 08:55:00,
2014-10-20 04:00:00,44.3,39.8,29.87,West,273,0.0,0.0,84,0.00,,,0.00,0,Wunderground v.1.15,2014-10-20 09:00:00,
2014-10-20 04:05:00,44.1,39.6,29.87,West,273,0.0,0.0,84,0.00,,,0.00,0,Wunderground v.1.15,2014-10-20 09:05:00,
2014-10-20 04:15:00,43.3,39.1,29.87,West,273,0.0,0.0,85,0.00,,,0.00,0,Wunderground v.1.15,2014-10-20 09:15:00,
2014-10-20 04:25:00,43.1,39.5,29.87,West,273,0.0,0.0,87,0.00,,,0.00,0,Wunderground v.1.15,2014-10-20 09:25:00,
2014-10-20 04:30:00,42.8,39.2,29.87,West,273,0.0,0.0,87,0.00,,,0.00,0,Wunderground v.1.15,2014-10-20 09:30:00,
2014-10-20 04:40:00,42.6,39.3,29.87,West,273,0.0,0.0,88,0.00,,,0.00,0,Wunderground v.1.15,2014-10-20 09:40:00,
2014-10-20 04:45:00,42.5,39.2,29.87,West,273,0.0,0.0,88,0.00,,,0.00,0,Wunderground v.1.15,2014-10-20 09:45:00,
2014-10-20 04:55:00,42.3,39.3,29.87,West,273,0.0,0.0,89,0.00,,,0.00,0,Wunderground v.1.15,2014-10-20 09:55:00,
2014-10-20 05:00:00,42.3,39.3,29.88,West,273,0.0,0.0,89,0.00,,,0.00,0,Wunderground v.1.15,2014-10-20 10:00:00,
2014-10-20 05:05:00,42.3,39.3,29.88,West,273,0.0,0.0,89,0.00,,,0.00,0,Wunderground v.1.15,2014-10-20 10:05:00,
2014-10-20 05:15:00,42.2,39.2,29.89,West,273,0.0,0.0,89,0.00,,,0.00,0,Wunderground v.1.15,2014-10-20 10:15:00,
2014-10-20 05:25:00,42.3,39.3,29.89,West,273,0.0,0.0,89,0.00,,,0.00,0,Wunderground v.1.15,2014-10-20 10:25:00,
2014-10-20 05:35:00,42.3,39.0,29.89,West,273,0.0,0.0,88,0.00,,,0.00,0,Wunderground v.1.15,2014-10-20 10:35:00,
2014-10-20 05:40:00,42.3,39.0,29.89,West,273,0.0,0.0,88,0.00,,,0.00,0,Wunderground v.1.15,2014-10-20 10:40:00,
2014-10-20 05:45:00,42.2,38.9,29.89,West,273,0.0,0.0,88,0.00,,,0.00,0,Wunderground v.1.15,2014-10-20 10:45:00,
2014-10-20 05:50:00,42.1,38.8,29.89,West,273,0.0,0.0,88,0.00,,,0.00,0,Wunderground v.1.15,2014-10-20 10:50:00,
2014-10-20 05:55:00,42.1,39.1,29.89,West,273,0.0,0.0,89,0.00,,,0.00,0,Wunderground v.1.15,2014-10-20 10:55:00,
2014-10-20 06:00:00,41.9,38.6,29.90,West,273,0.0,0.0,88,0.00,,,0.00,0,Wunderground v.1.15,2014-10-20 11:00:00,
2014-10-20 06:05:00,41.9,38.9,29.90,West,273,0.0,0.0,89,0.00,,,0.00,0,Wunderground v.1.15,2014-10-20 11:05:00,
2014-10-20 06:15:00,41.9,38.9,29.90,West,273,0.0,0.0,89,0.00,,,0.00,0,Wunderground v.1.15,2014-10-20 11:15:00,
2014-10-20 06:20:00,41.8,38.8,29.90,West,273,0.0,0.0,89,0.00,,,0.00,0,Wunderground v.1.15,2014-10-20 11:20:00,